Location: Unspecified
(48.8330°N, 0.0000°E)
Time: 18:29:03
(UTC+00:00)

Tiangong 2 - Visible Passes

Search period start: 25 June 2019 00:00
Search period end: 05 July 2019 00:00
Orbit: 376 x 388 km, 42.8° (Epoch: 25 June)

Date Brightness Start Highest point End Pass type
(mag) Time Alt. Az. Time Alt. Az. Time Alt. Az.
28 Jun 3.3 02:50:43 10° S 02:52:23 14° SSE 02:54:05 10° SE visible
30 Jun 2.8 02:27:25 16° S 02:28:22 18° SSE 02:30:36 10° ESE visible
01 Jul 3.6 01:29:43 11° SE 01:29:43 11° SE 01:29:58 10° SE visible
01 Jul 2.3 03:01:52 11° SW 03:04:26 25° S 03:07:08 10° ESE visible
02 Jul 2.4 02:04:10 22° S 02:04:22 22° SSE 02:06:53 10° ESE visible
03 Jul 2.2 02:38:41 16° SW 02:40:28 27° S 02:43:12 10° ESE visible
04 Jul 2.5 01:41:08 23° SSE 01:41:08 23° SSE 01:43:02 10° ESE visible
04 Jul 2.4 03:14:00 10° WSW 03:16:34 23° S 03:19:08 10° SE visible
